This is the latest recevied weather packets stored in our database for station/object K9TLD. If no packets are shown the sender has not sent any weather packets the latest 1 day(s).
| Time | Temp. | Humidity | Pressure | Rain* | Wind** | Luminosity | Snow |
|---|---|---|---|---|---|---|---|
| 1778018019 | 15° C | 33% | 1009.6 hPa | 0 mm | 0.89 m/s, 230° | 240 W/m² | - |
| 1778017717 | 15° C | 32% | 1009.8 hPa | 0 mm | 0.89 m/s, 254° | 298 W/m² | - |
| 1778017414 | 15.56° C | 32% | 1009.4 hPa | 0 mm | 0.89 m/s, 239° | 355 W/m² | - |
| 1778017111 | 15.56° C | 31% | 1009.6 hPa | 0 mm | 0.89 m/s, 230° | 367 W/m² | - |
| 1778016809 | 15.56° C | 32% | 1009.7 hPa | 0 mm | 0.89 m/s, 293° | 377 W/m² | - |
| 1778016504 | 15.56° C | 32% | 1009.7 hPa | 0 mm | 0.89 m/s, 71° | 394 W/m² | - |
| 1778016202 | 15.56° C | 31% | 1009.9 hPa | 0 mm | 0.45 m/s, 238° | 412 W/m² | - |
| 1778015898 | 16.11° C | 33% | 1009.7 hPa | 0 mm | 1.34 m/s, 300° | 431 W/m² | - |
| 1778015596 | 15.56° C | 33% | 1009.7 hPa | 0 mm | 0.89 m/s, 255° | 420 W/m² | - |
| 1778015292 | 16.11° C | 33% | 1009.7 hPa | 0 mm | 1.34 m/s, 238° | 445 W/m² | - |
| 1778014989 | 15.56° C | 34% | 1009.3 hPa | 0 mm | 0.45 m/s, 240° | 352 W/m² | - |
| 1778014686 | 15.56° C | 32% | 1009.4 hPa | 0 mm | 0.89 m/s, 243° | 479 W/m² | - |
| 1778014384 | 16.11° C | 32% | 1009.3 hPa | 0 mm | 0.45 m/s, 235° | 490 W/m² | - |
| 1778014080 | 15.56° C | 31% | 1009.6 hPa | 0 mm | 0.89 m/s, 241° | 499 W/m² | - |
| 1778013778 | 15.56° C | 31% | 1009.6 hPa | 0 mm | 0.89 m/s, 249° | 512 W/m² | - |
| 1778013475 | 15.56° C | 31% | 1009.6 hPa | 0 mm | 1.79 m/s, 290° | 523 W/m² | - |
| 1778013172 | 16.11° C | 30% | 1009.7 hPa | 0 mm | 2.24 m/s, 258° | 534 W/m² | - |
| 1778012868 | 16.11° C | 33% | 1009.7 hPa | 0 mm | 0.45 m/s, 232° | 543 W/m² | - |
| 1778012564 | 15.56° C | 32% | 1009.8 hPa | 0 mm | 0.89 m/s, 238° | 557 W/m² | - |
| 1778012261 | 15.56° C | 31% | 1009.4 hPa | 0 mm | 2.24 m/s, 223° | 577 W/m² | - |
| 1778011959 | 15.56° C | 33% | 1009.8 hPa | 0 mm | 0.89 m/s, 216° | 583 W/m² | - |
| 1778011657 | 16.11° C | 32% | 1009.4 hPa | 0 mm | 0.89 m/s, 254° | 594 W/m² | - |
| 1778011354 | 15.56° C | 31% | 1009.6 hPa | 0 mm | 0.45 m/s, 240° | 606 W/m² | - |
| 1778011049 | 15.56° C | 30% | 1009.7 hPa | 0 mm | 1.34 m/s, 244° | 623 W/m² | - |
| 1778010747 | 15.56° C | 32% | 1009.9 hPa | 0 mm | 1.79 m/s, 227° | 641 W/m² | - |
* Rain latest hour (hover to see other rain measurements)
** Current wind speed in m/s (hover to see current wind gust speed)